Home > Weather > Pocatello > Past weeks

Flag for USA Past Weather in Pocatello, Idaho, USA — Yesterday and Last 2 Weeks

Now
66 °F

Sunny.


Feels Like: 66 °F
Forecast: 44 / 81 °F
Wind: 5 mph from Southeast

Location: Pocatello Regional Airport

Current Time: Aug 25, 2016 at 9:28:54 PM

Latest Report: Aug 25, 2016 at 8:53 PM


Visibility: 10 mi

Pressure: 29.94 "Hg (25.54 "Hg at 1357m altitude)

Humidity: 23%

Dew Point: 27 °F

Location of PocatelloLocation

Past Weather in Pocatello — Graph

°F

Pocatello Temperature Yesterday

Maximum temperature yesterday: 77 °F (at 5:53 PM)
Minimum temperature yesterday: 48 °F (at 6:53 AM)
Average temperature yesterday: 62 °F

High & Low Weather Summary for the Past Weeks

 TemperatureHumidityPressure
High95 °F (Aug 16, 4:53 PM)75% (Aug 19, 5:53 AM)30.14 "Hg (Aug 19, 5:53 AM)
Low43 °F (Aug 13, 6:53 AM)8% (Aug 22, 4:53 PM)29.73 "Hg (Aug 22, 2:53 AM)
Average70 °F31%29.95 "Hg
* Reported Aug 10 7:53 PM — Aug 25 7:53 PM, Pocatello, Weather by CustomWeather, © 2016

Note: Actual official high and low records may vary slightly from our data, if they occured in-between our weather recording intervals... More about our weather records

Advertising

Pocatello Weather History for the Previous 24 Hours

Scroll right to see more
 ConditionsComfort  
Time TempWeatherWind HumidityBarometerVisibility
7:53 PM
Thu, Aug 25
71 °FSunny.No wind19%29.94 "Hg10 mi
6:53 PM77 °FSunny.6 mph16%29.94 "Hg10 mi
5:53 PM79 °FPassing clouds.8 mph15%29.94 "Hg10 mi
4:53 PM79 °FPassing clouds.7 mph14%29.95 "Hg10 mi
3:53 PM80 °FPassing clouds.8 mph16%29.96 "Hg10 mi
2:53 PM79 °FPassing clouds.9 mph18%29.98 "Hg10 mi
1:53 PM77 °FPassing clouds.12 mph22%30.00 "Hg10 mi
12:53 PM73 °FSunny.3 mph26%30.03 "Hg10 mi
11:53 AM68 °FSunny.8 mph33%30.07 "Hg10 mi
10:53 AM63 °FSunny.10 mph38%30.10 "Hg10 mi
9:53 AM59 °FSunny.10 mph46%30.11 "Hg10 mi
8:53 AM55 °FSunny.7 mph51%30.13 "Hg10 mi
7:53 AM49 °FClear.6 mph61%30.11 "Hg10 mi
6:53 AM45 °FClear.8 mph71%30.11 "Hg10 mi
5:53 AM47 °FClear.5 mph66%30.10 "Hg10 mi
4:53 AM49 °FClear.9 mph59%30.10 "Hg10 mi
3:53 AM50 °FClear.12 mph59%30.10 "Hg10 mi
2:53 AM51 °FClear.8 mph56%30.10 "Hg10 mi
1:53 AM54 °FClear.9 mph49%30.09 "Hg10 mi
12:53 AM57 °FClear.7 mph44%30.09 "Hg10 mi
11:53 PM
Wed, Aug 24
55 °FClear.7 mph45%30.09 "Hg10 mi
10:53 PM59 °FClear.No wind38%30.09 "Hg10 mi
9:53 PM62 °FSunny.5 mph35%30.09 "Hg10 mi
Weather by CustomWeather, © 2016

See weather overviewHow to use our weather pages